Buckland, AK

5:06 PM AKDT on March 26, 2017 (GMT -0800)
Buckland

Weather History for PABL - July, 2013

Change the Weather History Date:

Thursday, July 18, 2013

  Actual Average (PASK) Record (PASK)
Temperature  
Mean Temperature 52 °F -  
Max Temperature 66 °F 61 °F 71 °F (1996)
Min Temperature 39 °F 50 °F 41 °F (2014)
Degree Days  
Heating Degree Days 12    
Growing Degree Days 2 (Base 50)    
Moisture  
Dew Point 47 °F    
Average Humidity 76    
Maximum Humidity 100    
Minimum Humidity 52    
Precipitation  
Precipitation 0.00 in - - ()
Sea Level Pressure  
Sea Level Pressure 30.08 in    
Wind  
Wind Speed 5 mph (East)    
Max Wind Speed 9 mph    
Max Gust Speed -    
Visibility 8 miles    
Events      
Averages and records for this station are not official NWS values.
T = Trace of Precipitation, MM = Missing Value Source: NWS Daily Summary

Daily Weather History Graph

Daily Weather History Graph

Search for Another Location

Airport or City:

Trip Planner

Search our weather history database for the weather conditions in past years. The results will help you decide how hot, cold, wet, or windy it might be!

Date:

Astronomy

Jul. 18, 2013 Rise Set
Actual Time 4:35 AM AKDT 1:02 AM AKDT
Civil Twilight Sun does not rise Sun does not rise
Nautical Twilight Sun does not rise Sun does not rise
Astronomical Twilight Sun does not rise Sun does not rise
Moon 8:49 PM AKDT (7/18) 1:20 AM AKDT (7/18)
Length of Visible Light 24h 00m
Length of Day
20h 26m
Waxing Gibbous, 79% of the Moon is Illuminated
Jul 18
Waxing Gibbous
Jul 22
Full
Jul 29
Last Quarter
Aug 6
New
Aug 14
First Quarter

Hourly Weather History & Observations

Time (AKDT) Temp. Windchill Dew Point Humidity Pressure Visibility Wind Dir Wind Speed Gust Speed Precip Events Conditions
12:16 AM 51.8 °F - 46.4 °F 82% 30.08 in 10.0 mi SE 5.8 mph - N/A   Mostly Cloudy
12:36 AM 51.8 °F - 46.4 °F 82% 30.08 in 10.0 mi SE 6.9 mph - N/A   Partly Cloudy
12:56 AM 50.0 °F - 44.6 °F 82% 30.09 in 10.0 mi SE 9.2 mph - N/A   Partly Cloudy
1:16 AM 48.2 °F - 44.6 °F 87% 30.09 in 10.0 mi SE 6.9 mph - N/A   Partly Cloudy
1:36 AM 48.2 °F - 44.6 °F 87% 30.09 in 10.0 mi SE 4.6 mph - N/A   Clear
1:56 AM 48.2 °F - 44.6 °F 87% 30.10 in 10.0 mi ESE 5.8 mph - N/A   Clear
2:16 AM 46.4 °F 43.5 °F 42.8 °F 87% 30.10 in 10.0 mi East 5.8 mph - N/A   Clear
2:36 AM 46.4 °F 43.5 °F 44.6 °F 93% 30.10 in 10.0 mi ESE 5.8 mph - N/A   Clear
2:56 AM 46.4 °F 44.3 °F 42.8 °F 87% 30.10 in 10.0 mi ESE 4.6 mph - N/A   Clear
3:16 AM 46.4 °F 43.5 °F 42.8 °F 87% 30.10 in 10.0 mi East 5.8 mph - N/A   Partly Cloudy
3:36 AM 44.6 °F 42.2 °F 42.8 °F 93% 30.11 in 10.0 mi East 4.6 mph - N/A   Mostly Cloudy
3:56 AM 44.6 °F 41.4 °F 42.8 °F 93% 30.10 in 10.0 mi East 5.8 mph - N/A   Partly Cloudy
4:16 AM 44.6 °F 41.4 °F 42.8 °F 93% 30.10 in 10.0 mi East 5.8 mph - N/A   Clear
4:36 AM 44.6 °F 43.1 °F 41.0 °F 87% 30.10 in 10.0 mi ESE 3.5 mph - N/A   Clear
4:56 AM 44.6 °F 43.1 °F 41.0 °F 87% 30.11 in 10.0 mi ESE 3.5 mph - N/A   Clear
5:16 AM 42.8 °F 41.1 °F 39.2 °F 87% 30.11 in 10.0 mi SE 3.5 mph - N/A   Clear
5:36 AM 42.8 °F 41.1 °F 39.2 °F 87% 30.11 in 10.0 mi SSE 3.5 mph - N/A   Clear
5:56 AM 39.2 °F 35.9 °F 37.4 °F 93% 30.11 in 0.2 mi SW 4.6 mph - N/A   Overcast
6:16 AM 39.2 °F - 37.4 °F 93% 30.11 in 0.2 mi Calm Calm - N/A   Overcast
6:36 AM 41.0 °F - 37.4 °F 87% 30.11 in 0.2 mi Calm Calm - N/A   Overcast
6:56 AM 42.8 °F - 39.2 °F 87% 30.11 in 0.2 mi Calm Calm - N/A   Overcast
7:16 AM 42.8 °F - 42.8 °F 100% 30.11 in 0.5 mi Calm Calm - N/A   Overcast
7:36 AM 42.8 °F - 41.0 °F 93% 30.11 in 0.2 mi Calm Calm - N/A   Overcast
7:56 AM 44.6 °F - 42.8 °F 93% 30.10 in 1.8 mi Calm Calm - N/A   Overcast
8:16 AM 46.4 °F - 44.6 °F 93% 30.11 in 2.0 mi Calm Calm - N/A   Overcast
8:36 AM 46.4 °F 43.5 °F 44.6 °F 93% 30.11 in 3.0 mi SSE 5.8 mph - N/A   Overcast
8:56 AM 44.6 °F 41.4 °F 42.8 °F 93% 30.10 in 0.2 mi South 5.8 mph - N/A   Overcast
9:16 AM 46.4 °F 45.2 °F 44.6 °F 93% 30.10 in 0.2 mi SSE 3.5 mph - N/A   Overcast
9:36 AM 48.2 °F - 46.4 °F 93% 30.11 in 10.0 mi South 4.6 mph - N/A   Overcast
9:56 AM 50.0 °F - 46.4 °F 87% 30.10 in 10.0 mi Calm Calm - N/A   Overcast
10:16 AM 51.8 °F - 46.4 °F 82% 30.10 in 10.0 mi SE 6.9 mph - N/A   Overcast
10:36 AM 53.6 °F - 46.4 °F 77% 30.10 in 10.0 mi ESE 6.9 mph - N/A   Overcast
10:56 AM 53.6 °F - 46.4 °F 77% 30.10 in 10.0 mi SE 8.1 mph - N/A   Overcast
11:16 AM 55.4 °F - 46.4 °F 72% 30.10 in 10.0 mi ESE 6.9 mph - N/A   Overcast
11:36 AM 55.4 °F - 48.2 °F 77% 30.09 in 10.0 mi SE 6.9 mph - N/A   Overcast
11:56 AM 55.4 °F - 48.2 °F 77% 30.09 in 10.0 mi SE 8.1 mph - N/A   Overcast
12:16 PM 57.2 °F - 48.2 °F 72% 30.10 in 10.0 mi SE 8.1 mph - N/A   Mostly Cloudy
12:36 PM 57.2 °F - 48.2 °F 72% 30.10 in 10.0 mi ESE 9.2 mph - N/A   Mostly Cloudy
12:56 PM 57.2 °F - 48.2 °F 72% 30.10 in 10.0 mi SE 8.1 mph - N/A   Mostly Cloudy
1:16 PM 59.0 °F - 48.2 °F 67% 30.09 in 10.0 mi ESE 6.9 mph - N/A   Mostly Cloudy
1:36 PM 59.0 °F - 48.2 °F 67% 30.09 in 10.0 mi East 6.9 mph - N/A   Scattered Clouds
1:56 PM 60.8 °F - 48.2 °F 63% 30.09 in 10.0 mi ESE 4.6 mph - N/A   Clear
2:16 PM 60.8 °F - 48.2 °F 63% 30.08 in 10.0 mi ENE 5.8 mph - N/A   Clear
2:36 PM 62.6 °F - 50.0 °F 63% 30.08 in 10.0 mi SW 4.6 mph - N/A   Clear
2:56 PM 62.6 °F - 48.2 °F 59% 30.07 in 10.0 mi Calm Calm - N/A   Clear
3:16 PM 62.6 °F - 48.2 °F 59% 30.06 in 10.0 mi Calm Calm - N/A   Clear
3:36 PM 64.4 °F - 50.0 °F 59% 30.06 in 10.0 mi Calm Calm - N/A   Clear
3:56 PM 64.4 °F - 51.8 °F 64% 30.06 in 10.0 mi East 4.6 mph - N/A   Partly Cloudy
4:16 PM 64.4 °F - 48.2 °F 56% 30.06 in 10.0 mi Calm Calm - N/A   Clear
4:36 PM 64.4 °F - 48.2 °F 56% 30.05 in 10.0 mi Calm Calm - N/A   Clear
4:56 PM 66.2 °F - 48.2 °F 52% 30.05 in 10.0 mi Calm Calm - N/A   Clear
5:16 PM 64.4 °F - 51.8 °F 64% 30.05 in 10.0 mi NNW 6.9 mph - N/A   Clear
5:36 PM 64.4 °F - 51.8 °F 64% 30.04 in 10.0 mi NNW 8.1 mph - N/A   Clear
5:56 PM 66.2 °F - 51.8 °F 60% 30.04 in 3.0 mi NNW 8.1 mph - N/A   Clear
6:16 PM 66.2 °F - 51.8 °F 60% 30.04 in 10.0 mi NNW 6.9 mph - N/A   Clear
6:36 PM 66.2 °F - 53.6 °F 64% 30.04 in 10.0 mi NNW 9.2 mph - N/A   Clear
6:56 PM 66.2 °F - 51.8 °F 60% 30.04 in 10.0 mi North 5.8 mph - N/A   Clear
7:16 PM 66.2 °F - 51.8 °F 60% 30.04 in 10.0 mi North 6.9 mph - N/A   Clear
7:36 PM 66.2 °F - 51.8 °F 60% 30.04 in 10.0 mi North 9.2 mph - N/A   Clear
7:56 PM 64.4 °F - 51.8 °F 64% 30.04 in 2.5 mi North 8.1 mph - N/A   Clear
8:16 PM 64.4 °F - 51.8 °F 64% 30.05 in 10.0 mi North 9.2 mph - N/A   Clear
8:36 PM 64.4 °F - 50.0 °F 59% 30.05 in 10.0 mi North 8.1 mph - N/A   Clear
8:56 PM 64.4 °F - 50.0 °F 59% 30.04 in 10.0 mi NNW 9.2 mph - N/A   Clear
9:16 PM 64.4 °F - 51.8 °F 64% 30.05 in 10.0 mi North 5.8 mph - N/A   Clear
9:36 PM 62.6 °F - 50.0 °F 63% 30.05 in 10.0 mi North 5.8 mph - N/A   Clear
9:56 PM 62.6 °F - 50.0 °F 63% 30.05 in 10.0 mi North 4.6 mph - N/A   Clear
10:16 PM 62.6 °F - 51.8 °F 68% 30.05 in 10.0 mi Calm Calm - N/A   Clear
10:36 PM 62.6 °F - 51.8 °F 68% 30.06 in 10.0 mi NNW 6.9 mph - N/A   Clear
10:56 PM 62.6 °F - 51.8 °F 68% 30.06 in 10.0 mi NW 6.9 mph - N/A   Clear
11:16 PM 60.8 °F - 51.8 °F 72% 30.07 in 10.0 mi NW 6.9 mph - N/A   Clear
11:36 PM 60.8 °F - 53.6 °F 77% 30.07 in 10.0 mi WNW 8.1 mph - N/A   Clear
11:56 PM 59.0 °F - 53.6 °F 82% 30.07 in 10.0 mi NW 6.9 mph - N/A   Clear